Weather History for Lima, OH

Change the Weather History Date:

Thursday, May 9, 2013

  Actual Average (KFDY) Record (KFDY)
Temperature  
Mean Temperature 68 °F -  
Max Temperature 81 °F 66 °F 89 °F (1979)
Min Temperature 55 °F 47 °F 31 °F (1966)
Cooling Degree Days 2    
Growing Degree Days 18 (Base 50)    
Moisture  
Dew Point 53 °F    
Average Humidity 63    
Maximum Humidity 86    
Minimum Humidity 30    
Precipitation  
Precipitation 0.03 in - - ()
Sea Level Pressure  
Sea Level Pressure 29.96 in    
Wind  
Wind Speed 4 mph (WSW)    
Max Wind Speed 16 mph    
Max Gust Speed -    
Visibility 10 miles    
Events Rain    
Averages and records for this station are not official NWS values.
T = Trace of Precipitation, MM = Missing Value Source: NWS Daily Summary

Daily Weather History Graph

Daily Weather History Graph

Search for Another Location

Airport:

Trip Planner

Search our weather history database for the weather conditions in past years. The results will help you decide how hot, cold, wet, or windy it might be!

Date:

Astronomy

May. 09, 2013 Rise Set
Actual Time 6:24 AM EDT 8:40 PM EDT
Civil Twilight 5:54 AM EDT 9:11 PM EDT
Nautical Twilight 5:16 AM EDT 9:49 PM EDT
Astronomical Twilight 4:35 AM EDT 10:30 PM EDT
Moon 6:09 AM EDT (5/9) 8:34 PM EDT (5/9)
Length of Visible Light 15h 16m
Length of Day
14h 15m
Waning Crescent, 0% of the Moon is Illuminated
May 9
Waning Crescent
May 9
New
May 18
First Quarter
May 25
Full
May 31
Last Quarter

Hourly Weather History & Observations

Time (EDT) Temp. Dew Point Humidity Pressure Visibility Wind Dir Wind Speed Gust Speed Precip Events Conditions
12:53 AM 61.0 °F 53.1 °F 75% 29.98 in 10.0 mi WSW 4.6 mph - N/A   Scattered Clouds
1:53 AM 60.1 °F 52.0 °F 75% 29.97 in 10.0 mi Calm Calm - N/A   Partly Cloudy
2:53 AM 57.0 °F 52.0 °F 83% 29.95 in 10.0 mi South 3.5 mph - N/A   Clear
3:53 AM 55.9 °F 51.1 °F 84% 29.95 in 10.0 mi Calm Calm - N/A   Clear
4:53 AM 57.0 °F 51.1 °F 81% 29.95 in 10.0 mi SW 5.8 mph - N/A   Clear
5:53 AM 57.9 °F 52.0 °F 81% 29.96 in 10.0 mi WSW 6.9 mph - N/A   Clear
6:53 AM 55.9 °F 50.0 °F 80% 29.99 in 9.0 mi WSW 3.5 mph - N/A   Clear
7:53 AM 61.0 °F 53.1 °F 75% 29.98 in 9.0 mi Calm Calm - N/A   Clear
8:53 AM 64.9 °F 54.0 °F 68% 29.99 in 10.0 mi West 8.1 mph - N/A   Clear
9:53 AM 69.1 °F 55.9 °F 63% 29.99 in 10.0 mi West 4.6 mph - N/A   Clear
10:53 AM 73.0 °F 55.0 °F 53% 29.99 in 10.0 mi West 5.8 mph - N/A   Clear
11:53 AM 75.0 °F 54.0 °F 48% 30.00 in 10.0 mi Calm Calm - N/A   Clear
1:53 PM 78.1 °F 51.1 °F 39% 29.99 in 10.0 mi WSW 6.9 mph - N/A   Clear
2:53 PM 80.1 °F 46.0 °F 30% 29.97 in 10.0 mi Variable 5.8 mph - N/A   Clear
4:53 PM 79.0 °F 46.9 °F 32% 29.93 in 10.0 mi SSW 6.9 mph - N/A   Scattered Clouds
5:53 PM 77.0 °F 48.9 °F 37% 29.93 in 10.0 mi WSW 8.1 mph - N/A   Overcast
6:53 PM 75.0 °F 48.9 °F 40% 29.94 in 10.0 mi NNW 3.5 mph - N/A   Mostly Cloudy
7:53 PM 72.0 °F 55.9 °F 57% 29.93 in 10.0 mi WNW 3.5 mph - N/A   Mostly Cloudy
8:53 PM 71.1 °F 54.0 °F 55% 29.93 in 10.0 mi West 3.5 mph - N/A   Overcast
9:31 PM 68.0 °F 53.6 °F 60% 29.97 in 10.0 mi WSW 16.1 mph - N/A   Overcast
9:53 PM 66.9 °F 55.0 °F 66% 29.96 in 10.0 mi West 8.1 mph - 0.00 in Rain Light Rain
10:53 PM 63.0 °F 57.9 °F 84% 29.95 in 10.0 mi ESE 4.6 mph - 0.03 in Rain Light Rain
11:53 PM 62.1 °F 57.9 °F 86% 29.93 in 10.0 mi Calm Calm - 0.00 in   Overcast